Location: Castle
(40.7167°S, 175.9500°E)
Time: 04:06:28
(UTC+00:00)

Lacrosse 5 rocket - Pass Details

Date: 04 August 2024
Orbit: 434 x 569 km, 57.0° (Epoch: 07 September)

Event Time Altitude Azimuth Distance (km) Brightness Sun altitude
Exits shadow 16:59:29 14° 11° (N) 1,611 3.8 -26.5°
Maximum altitude 17:02:03 24° 56° (NE) 1,198 3.5 -26.0°
Drops below altitude 10° 17:05:28 10° 110° (ESE) 1,856 4.9 -25.4°
Sets 17:07:58 0° 124° (ESE) 2,734 5.7 -24.9°
